Wind_Speed
21 21 21 22 23 23 23 23 23 23 25 27 28 29 30 32 36 39 41 43 44 45 45 45 44 45 46 49 54 58 59 58 58 57 57 56 54 53 52 49 48 46 45 46 47 47 45 44 41 39 38 37 36 36 33 30 27 25 25 23 21 18 10 7 10 11 11 12 9 5 7 9 10 11 10 11 10 6 11 15 15 17 20 22 26 28 28 29
21 21 21 22 23 24 24 24 24 24 24 25 28 30 30 32 34 38 41 44 45 46 47 47 46 46 46 48 51 57 59 60 59 59 58 57 56 55 53 51 50 48 46 47 48 49 48 46 43 41 39 38 37 37 35 31 28 27 27 25 22 19 10 8 13 16 15 14 10 5 6 8 10 13 14 12 7 7 11 13 14 17 19 21 25 27 26 27
22 22 22 22 23 24 25 25 26 26 25 25 26 29 32 32 34 37 41 44 46 48 48 49 49 48 48 48 50 54 59 61 61 61 59 59 58 57 55 53 51 49 48 48 49 50 49 48 45 43 41 39 38 38 37 33 30 29 27 25 24 19 13 13 18 18 17 16 12 8 8 8 10 15 16 12 6 8 11 12 13 15 17 20 24 25 25 26
25 25 24 24 24 25 26 26 26 27 27 27 27 28 31 33 35 36 39 43 46 49 50 50 51 50 49 49 50 52 56 61 62 62 61 60 59 59 57 55 53 51 49 49 49 51 51 50 47 44 42 41 39 39 38 35 32 30 27 25 25 21 16 16 20 18 19 17 12 10 10 10 12 13 12 8 6 8 10 10 11 14 15 18 22 23 23 26
27 27 27 26 26 26 27 28 28 28 28 29 29 29 30 33 36 37 38 42 46 49 51 52 52 52 52 51 51 52 54 59 62 63 63 61 61 60 59 57 55 53 50 50 50 51 51 51 49 46 44 43 41 40 40 37 34 32 29 26 26 24 20 15 17 16 16 15 12 11 11 11 13 13 11 7 6 7 7 8 10 12 13 16 20 21 22 25
29 30 30 29 29 29 29 30 30 30 30 30 31 31 31 32 35 38 39 41 45 48 51 54 54 54 54 53 53 53 53 57 61 64 64 63 62 62 61 59 57 55 52 52 51 52 52 53 51 48 46 45 42 41 41 39 36 33 30 28 27 26 23 18 14 15 13 11 9 10 11 13 15 15 13 8 6 6 7 8 8 9 11 14 18 19 21 25
32 32 32 32 31 31 31 31 32 32 32 31 31 32 34 34 35 38 41 42 44 48 51 54 56 56 56 56 55 54 53 55 59 63 65 65 64 64 63 60 59 57 54 53 53 52 53 54 52 50 48 46 44 42 42 41 38 35 32 30 28 27 25 21 16 15 12 10 8 10 13 16 18 17 16 10 6 7 8 8 7 7 9 12 17 17 21 24
36 35 35 34 33 32 32 32 33 34 34 34 33 33 35 36 37 38 40 43 44 47 51 54 57 58 58 58 57 56 55 55 58 62 65 66 66 65 64 62 60 59 56 55 54 53 53 54 53 52 50 48 45 43 43 43 40 38 35 33 30 29 25 23 21 17 15 15 13 15 19 21 21 19 19 17 12 12 10 8 7 8 10 12 16 16 20 22
41 39 37 36 35 34 32 32 33 34 35 35 36 35 35 37 39 39 40 43 46 48 50 54 57 59 60 59 59 58 57 57 57 60 64 66 67 67 66 64 62 61 59 56 55 55 54 55 54 53 52 50 47 45 44 44 43 41 39 35 32 31 27 26 27 22 20 22 18 18 21 21 20 18 18 18 16 14 10 8 7 10 11 13 16 16 18 20
45 42 39 38 36 35 33 32 33 34 36 36 37 37 38 38 39 41 41 43 46 49 51 53 57 60 61 61 61 60 59 59 58 59 62 66 68 68 67 66 64 63 61 59 58 57 55 54 54 53 54 52 50 48 46 46 45 44 42 38 35 34 30 29 31 28 26 25 19 18 20 19 20 19 18 17 15 14 11 8 7 9 11 13 16 15 16 17
48 45 43 42 41 39 36 34 33 34 36 37 37 38 40 40 40 42 43 44 46 50 52 53 56 59 62 63 63 62 62 61 60 59 61 65 68 69 69 68 66 65 64 62 60 58 55 53 54 55 55 54 52 50 48 47 47 46 44 41 38 37 34 31 33 33 31 28 22 20 22 21 21 21 20 18 16 15 13 10 8 9 10 11 14 13 14 14
49 48 48 48 46 44 40 38 36 35 36 37 38 39 41 42 43 42 44 46 47 49 53 54 56 59 62 64 64 65 65 64 63 62 61 63 67 69 70 69 68 67 66 64 61 58 56 54 55 55 56 55 53 51 50 48 49 48 46 44 41 40 37 34 36 35 34 31 25 22 26 27 25 24 22 20 17 16 14 12 10 10 9 9 12 11 11 11
51 52 52 52 50 47 44 41 39 38 37 38 40 41 42 43 45 45 45 47 48 49 53 56 57 59 62 64 66 67 68 67 66 64 63 63 66 69 70 70 70 69 68 66 63 60 57 56 56 56 57 57 55 53 51 50 50 50 49 47 45 44 41 38 38 37 36 33 28 25 28 29 26 25 23 20 19 18 16 14 11 10 8 7 9 9 8 9
56 56 56 55 52 49 46 43 41 40 39 39 41 42 43 45 47 48 47 47 50 51 53 57 59 59 62 65 68 70 70 69 68 67 65 64 65 68 70 71 72 71 70 68 65 62 59 58 57 57 58 58 57 55 53 51 51 51 51 50 48 46 43 41 40 39 38 35 32 28 27 30 29 26 25 21 20 21 19 16 12 10 9 8 8 8 7 8
61 60 59 56 53 49 46 43 42 41 40 40 41 43 45 47 48 50 50 49 51 53 54 56 60 61 62 65 69 71 71 70 70 69 67 66 65 66 69 72 73 73 72 70 67 64 61 60 59 59 59 60 58 57 54 53 52 53 53 52 50 48 45 44 43 41 39 36 35 30 26 31 33 29 27 25 23 23 22 18 15 12 11 10 7 7 6 6
65 64 62 58 54 51 47 44 42 41 41 41 42 43 46 48 50 52 53 52 52 54 56 56 60 62 63 66 70 71 72 72 71 70 69 68 67 67 68 71 73 74 73 72 69 66 63 62 61 60 60 60 59 58 56 54 55 55 54 53 51 49 46 46 45 43 41 38 36 33 27 29 33 32 29 28 26 24 22 18 15 13 12 10 7 6 5 5
69 67 63 59 56 52 49 46 43 41 41 41 42 44 47 49 52 54 55 55 54 55 57 57 59 63 65 66 69 71 72 72 72 72 71 70 69 68 68 70 73 75 75 73 71 68 66 64 63 62 62 61 60 59 58 57 57 56 55 55 53 51 47 47 47 45 43 40 35 34 30 29 31 32 31 30 28 26 22 17 15 14 13 12 9 5 4 4
72 68 64 60 57 54 51 48 45 43 42 42 43 45 48 50 53 55 56 57 57 56 57 58 59 62 65 66 68 71 72 73 74 74 73 72 71 70 69 70 72 74 75 74 72 70 68 67 65 64 63 62 61 61 61 59 59 58 57 56 55 53 50 49 48 47 45 41 35 34 32 29 29 31 32 30 29 28 24 18 15 16 15 14 11 6 2 3
73 68 65 62 59 56 53 50 47 45 43 43 45 47 49 51 54 57 58 59 59 58 57 60 60 61 65 67 68 71 73 74 75 76 76 75 74 73 72 70 71 72 74 74 74 72 71 69 67 66 66 64 64 65 64 62 60 59 58 57 57 56 54 53 51 50 47 42 37 34 31 29 29 31 33 31 28 28 26 20 17 17 17 15 12 8 3 1
74 70 67 65 62 58 54 51 47 45 44 45 46 48 50 53 56 59 60 60 61 61 59 60 61 61 63 67 69 71 74 75 76 77 78 77 76 75 74 72 71 72 73 75 75 74 73 71 69 69 70 69 68 67 66 63 61 60 59 58 59 59 58 56 54 52 49 45 40 35 30 28 29 31 33 31 28 27 25 21 18 17 17 15 12 10 6 3
75 73 70 67 62 57 52 49 46 45 44 45 47 49 51 54 57 59 61 62 63 63 61 60 61 62 62 67 70 71 74 76 77 78 79 79 78 77 76 74 73 73 74 76 76 75 73 72 72 73 74 72 70 68 66 64 63 62 60 59 60 61 59 57 55 53 51 49 45 39 32 28 28 31 33 32 29 26 23 22 20 19 18 16 13 11 9 6
77 74 70 65 59 53 48 44 42 42 42 44 46 48 52 55 57 59 62 64 65 64 63 61 62 63 63 66 71 72 74 77 78 79 80 81 80 79 78 77 76 76 76 76 76 75 74 74 75 76 76 74 71 68 66 65 64 63 62 62 61 61 61 60 58 55 53 51 49 44 36 29 28 31 33 33 30 27 25 25 23 21 19 18 15 13 11 10
77 71 66 59 53 46 41 38 37 37 39 40 43 47 51 54 57 59 62 64 66 65 64 63 63 64 64 66 70 74 75 77 79 80 81 82 82 82 81 80 79 78 76 75 76 76 76 77 78 78 77 75 74 71 68 66 65 65 65 64 63 63 63 63 60 57 55 53 52 49 41 34 30 30 32 33 31 30 29 27 25 22 20 19 17 14 13 12
73 66 58 51 45 40 35 32 31 32 34 37 41 45 49 53 56 59 62 64 66 66 66 65 64 65 67 67 70 74 76 77 80 81 82 83 84 83 83 83 81 80 78 77 77 78 79 81 80 79 78 78 77 74 70 68 67 67 67 66 66 65 65 65 64 61 58 54 53 51 46 40 35 32 33 34 33 32 30 29 27 24 22 20 17 16 14 13
67 58 50 44 39 35 31 28 26 27 30 33 37 42 47 51 55 58 62 64 66 67 67 67 67 69 70 69 70 74 77 78 80 82 83 84 85 85 85 85 84 82 81 79 79 81 83 82 80 79 80 80 79 76 72 70 69 68 68 69 68 66 65 66 66 65 64 60 55 53 50 45 39 35 34 35 34 32 30 29 28 26 25 22 17 16 15 13
59 50 43 38 35 32 29 25 23 24 27 30 34 39 45 49 54 58 61 64 66 68 68 68 70 72 72 71 71 74 78 79 80 83 85 85 86 86 86 86 86 85 84 82 82 83 84 82 81 81 81 81 80 78 75 73 71 70 70 70 70 68 66 66 68 69 69 64 59 55 52 48 43 37 35 35 35 34 32 31 29 27 26 23 19 18 17 14
52 44 38 33 30 27 26 23 22 22 24 28 32 36 41 46 51 56 60 63 65 67 69 70 72 73 73 73 72 74 77 80 80 82 85 86 86 87 87 88 88 88 86 84 83 84 84 83 83 82 82 82 81 80 77 75 73 73 73 72 71 70 68 68 69 71 70 66 63 59 56 53 48 41 38 37 36 35 33 34 32 30 28 23 19 20 18 15
47 40 34 29 25 23 23 21 19 20 23 25 28 31 37 42 47 52 56 60 64 66 68 71 73 74 74 74 74 74 75 79 81 82 85 88 87 87 88 89 89 89 87 85 84 85 85 85 85 84 83 83 83 83 81 77 76 77 76 73 72 73 72 70 70 71 70 68 66 63 59 57 54 49 44 41 39 36 34 36 35 32 30 25 20 21 21 17
42 36 31 26 21 19 19 17 17 20 21 23 25 28 33 38 43 48 52 57 61 64 67 70 72 74 76 76 76 75 75 78 82 82 84 87 89 89 90 90 90 90 89 87 87 87 86 86 86 86 84 84 85 86 83 80 80 80 77 75 74 74 74 73 72 71 71 70 68 65 62 59 57 55 51 45 42 39 36 37 38 35 32 28 24 25 25 22
39 33 28 23 18 16 16 16 17 19 20 20 22 25 29 34 38 43 48 53 57 61 65 68 71 74 76 76 76 75 76 78 81 83 84 87 90 92 91 90 91 90 90 90 90 90 88 88 87 86 86 86 87 87 85 84 84 83 79 77 76 75 75 75 74 72 70 69 69 67 64 61 59 59 56 51 47 42 38 38 40 38 35 31 29 28 28 26
35 30 25 19 14 14 14 15 16 17 17 19 20 23 26 29 33 38 42 47 52 56 60 64 68 71 74 75 76 76 77 78 81 83 85 87 90 93 92 91 91 91 91 91 93 93 91 89 88 88 89 90 89 88 87 87 87 84 82 80 78 77 77 76 75 72 69 69 70 68 66 63 61 60 59 56 52 48 42 39 40 41 38 35 32 31 30 29
33 27 22 16 12 12 12 13 14 14 15 17 19 21 23 26 29 33 37 42 47 51 56 60 63 67 71 74 75 76 77 79 81 84 86 87 90 93 94 93 92 92 92 94 95 95 93 91 90 90 92 92 92 90 89 89 87 85 83 81 79 78 77 76 75 72 71 72 71 70 68 65 63 61 59 58 56 54 49 45 43 43 41 39 36 35 34 32
32 26 20 15 12 11 12 13 13 12 13 15 18 20 21 23 26 29 33 38 43 48 53 57 60 64 67 71 74 76 77 79 81 83 86 88 90 92 95 95 94 93 94 95 96 95 95 93 92 92 92 92 93 92 91 90 88 86 85 82 80 79 77 76 76 74 74 75 73 71 69 67 65 63 60 59 58 57 55 52 49 47 45 44 42 40 39 37
32 25 20 15 12 12 12 12 11 10 11 14 16 18 19 21 24 27 31 36 41 45 50 54 58 62 65 69 72 74 77 79 81 83 86 89 90 92 95 96 96 95 95 95 96 95 95 95 94 93 91 91 92 93 94 93 90 89 87 84 81 79 78 78 78 77 77 76 74 72 69 68 67 65 63 62 60 59 59 58 56 53 51 50 48 46 43 41
30 24 19 15 12 11 9 9 8 8 10 11 13 15 17 19 22 26 30 35 39 44 48 52 56 60 64 68 71 73 76 78 81 84 87 89 91 92 93 94 95 95 95 95 95 96 96 95 95 93 92 92 92 94 95 95 93 92 90 87 84 82 81 81 80 79 79 78 76 73 68 68 69 67 66 64 62 62 62 62 61 58 55 55 53 50 46 43
28 22 18 14 11 9 7 6 6 7 8 10 12 14 16 19 22 26 29 34 38 42 46 51 56 59 63 66 69 72 75 78 82 84 86 88 90 92 91 91 93 95 95 94 94 95 96 96 95 95 94 94 94 94 96 96 96 93 91 89 87 85 84 84 82 81 81 79 76 72 69 69 70 69 67 66 64 64 64 63 63 61 59 58 57 54 49 44
27 21 17 13 10 7 6 5 5 6 7 9 11 14 16 19 23 26 30 34 38 41 45 50 55 59 62 64 67 71 75 78 81 82 84 86 89 89 89 90 92 93 94 95 94 95 96 97 97 96 96 97 96 95 96 97 97 94 93 92 90 88 86 86 85 83 82 80 77 74 71 69 69 70 69 67 66 65 65 65 64 63 62 60 58 55 49 45
27 22 17 12 8 6 5 5 5 7 8 10 12 13 16 19 23 27 31 36 39 41 45 49 53 57 60 63 67 71 73 76 79 80 82 84 85 86 88 90 91 92 94 95 95 95 96 97 97 97 98 98 98 97 97 98 97 95 94 93 92 90 89 88 88 85 83 82 78 75 73 71 70 71 70 68 67 66 66 65 64 63 61 58 55 52 48 45
27 22 17 12 8 6 6 7 8 10 11 11 12 13 16 19 24 28 32 36 40 43 46 49 52 55 58 62 67 70 72 75 77 78 80 81 82 84 87 89 90 91 93 95 97 98 98 97 97 98 99 100 99 99 98 98 97 96 95 94 93 93 91 91 90 87 86 85 82 78 75 72 72 72 71 68 66 66 66 65 64 63 62 59 55 51 47 45
26 21 16 12 10 9 9 10 11 12 11 10 12 14 18 21 25 28 31 34 38 42 46 48 51 53 56 60 65 69 72 75 76 78 79 80 81 83 86 88 90 91 93 95 97 99 99 98 98 98 100 101 100 100 100 99 99 98 97 95 95 95 94 94 92 90 88 87 84 81 77 74 73 73 72 70 67 66 66 65 64 64 64 62 60 55 50 48
27 20 16 13 12 12 12 12 11 10 10 11 13 17 21 24 27 28 29 31 35 39 43 46 48 50 53 57 62 66 70 73 75 77 79 80 81 83 85 87 89 90 92 93 96 99 100 100 99 99 100 100 101 102 102 102 101 101 99 98 97 97 96 95 94 92 90 88 86 83 79 77 75 74 74 72 70 69 67 66 65 64 63 62 60 57 53 51
28 20 16 14 14 14 14 13 11 9 10 13 16 19 23 26 27 27 27 28 31 35 40 44 46 48 51 54 58 62 67 70 73 76 78 79 81 83 85 86 87 89 90 92 95 97 99 101 101 100 100 100 101 103 103 104 104 103 102 101 99 98 96 95 94 92 91 90 88 85 81 79 76 74 74 73 72 71 70 67 66 65 62 60 58 55 52 50
29 21 17 16 16 16 16 14 12 11 12 14 17 21 25 28 28 26 24 24 27 31 35 40 44 48 50 53 55 58 63 67 71 75 77 79 80 82 84 86 87 88 89 91 93 96 98 100 101 101 101 100 101 103 104 105 105 104 104 103 101 99 97 95 94 92 92 91 89 87 84 81 78 76 74 72 72 71 71 70 68 65 63 61 58 55 52 49
30 22 19 18 18 17 17 16 14 14 15 16 19 23 27 29 29 25 21 20 21 25 30 35 41 46 50 53 54 56 60 64 69 72 75 77 79 81 83 85 86 88 89 90 92 95 97 98 100 102 102 102 102 103 103 104 105 105 105 104 102 100 97 95 94 93 93 93 91 89 86 83 81 79 76 74 74 73 73 72 70 68 65 62 59 56 53 48
30 23 20 20 19 18 19 18 17 17 18 18 21 25 28 30 29 25 20 17 16 19 23 28 34 41 47 52 54 56 59 63 66 69 72 75 77 80 81 82 84 87 88 89 90 93 95 98 99 101 103 104 103 103 103 104 105 105 105 104 103 101 99 97 95 94 94 93 92 91 88 86 85 82 79 78 77 77 76 74 72 70 66 63 61 59 56 47
30 23 20 20 19 19 20 20 19 20 20 20 22 25 28 30 30 26 20 16 14 14 18 23 28 34 41 48 52 56 59 62 64 66 69 72 75 78 79 80 82 85 87 88 89 90 93 96 98 101 103 104 105 104 104 103 103 103 103 104 104 103 101 99 98 96 95 94 93 92 90 88 87 85 83 81 80 80 79 76 74 71 68 65 62 60 57 49
31 24 21 20 20 19 20 20 20 20 21 22 24 25 27 29 31 27 21 16 12 11 14 18 23 29 35 41 47 53 58 61 64 66 67 70 73 75 78 80 82 84 86 88 89 90 90 93 96 99 102 104 105 105 105 104 102 101 101 102 103 103 103 102 100 98 97 95 93 92 91 90 89 88 86 84 83 82 81 78 76 73 70 68 66 62 57 53
31 25 21 20 19 19 20 20 20 21 22 23 24 26 27 28 31 29 23 17 12 9 9 14 19 24 30 34 40 47 53 58 62 65 67 69 71 73 76 79 82 84 86 88 89 89 90 91 93 96 100 102 104 105 105 105 103 101 100 100 101 102 102 103 102 100 99 97 95 94 93 92 91 90 89 88 86 85 83 81 78 76 73 71 70 67 62 60
32 26 22 21 20 19 20 20 21 22 23 24 25 27 29 30 32 32 26 19 14 9 7 9 14 19 24 29 35 41 46 51 56 61 66 68 70 72 75 78 81 84 86 87 88 89 89 90 91 94 97 99 102 104 105 105 104 102 101 101 101 102 102 102 102 102 101 100 98 96 94 93 92 92 91 90 89 87 86 84 82 80 78 75 73 70 66 65
33 27 23 21 20 19 20 21 21 22 23 24 25 27 29 31 32 33 29 22 16 12 8 6 10 15 20 25 30 35 40 44 49 55 61 66 69 72 75 77 79 83 85 86 87 88 89 90 90 91 94 96 98 101 103 104 103 103 102 102 102 102 103 102 102 102 102 101 101 99 96 95 93 92 92 91 91 90 89 88 86 84 82 79 78 75 70 68
33 27 23 21 20 20 20 21 21 21 22 24 25 26 28 31 32 33 32 26 19 15 11 7 6 10 15 20 26 31 35 39 43 48 53 59 65 70 74 76 78 80 82 85 86 87 88 89 89 90 92 93 94 96 99 101 102 102 103 102 102 103 104 103 102 103 103 102 102 101 99 97 95 93 93 93 93 93 92 91 89 87 86 83 82 80 77 74
34 27 24 21 20 20 20 21 21 22 22 24 25 26 28 31 33 34 34 30 23 17 14 11 7 6 10 15 20 25 30 34 39 43 47 52 58 65 71 75 78 79 80 82 84 86 88 89 89 89 90 91 92 93 95 97 99 100 102 102 103 104 105 105 103 103 103 103 103 102 101 100 98 96 95 94 94 94 94 94 92 90 88 86 85 84 83 82
Wind_Direction
314 309 303 298 293 289 286 284 282 278 271 262 254 248 243 239 235 231 227 224 223 223 224 223 219 217 217 217 216 214 213 213 213 213 210 209 209 211 211 211 211 211 212 213 214 214 213 213 212 212 213 211 210 212 211 209 206 203 205 203 199 197 179 157 186 194 201 211 202 213 260 260 257 261 271 277 288 355 10 359 5 5 3 3 5 10 11 10
315 311 308 303 297 291 285 281 278 276 274 267 259 252 245 241 237 233 230 226 224 223 224 224 222 218 217 218 217 216 214 213 213 213 212 210 210 212 212 211 212 212 212 213 213 213 213 213 212 212 213 212 211 211 211 210 206 204 205 202 200 194 162 153 189 191 200 209 198 200 240 243 249 255 259 265 289 2 354 354 4 2 360 359 2 8 10 10
311 308 306 305 302 296 289 282 278 274 271 269 263 256 249 243 239 235 232 229 226 223 223 224 223 220 218 218 218 217 215 214 214 214 213 211 210 212 213 212 212 213 213 213 214 213 213 213 212 211 213 213 211 211 212 210 207 207 206 202 200 189 165 185 197 191 201 205 194 192 195 213 245 251 251 260 294 328 332 348 2 358 357 355 359 7 9 8
309 306 303 300 300 298 294 287 280 274 270 266 264 259 253 246 240 237 233 231 228 225 223 223 224 222 219 218 218 218 216 214 214 214 214 212 211 212 213 213 212 213 214 214 214 214 213 213 212 211 213 213 211 211 211 210 208 208 207 201 198 188 172 197 208 197 200 202 193 189 184 211 242 249 249 257 284 303 321 343 354 355 355 352 357 5 6 6
308 305 302 298 296 294 292 290 285 278 271 266 262 259 255 249 243 238 235 232 229 227 225 223 223 223 221 219 217 218 217 215 214 214 214 214 213 212 214 213 212 213 214 215 214 214 213 213 212 210 212 214 211 211 211 210 208 208 208 202 197 190 173 186 215 210 203 204 196 196 200 217 237 249 248 244 263 286 314 333 345 353 352 349 355 4 3 3
307 304 302 298 295 292 288 286 285 282 275 268 262 258 255 251 245 240 236 233 230 228 226 224 223 223 222 221 218 217 217 216 215 215 215 214 214 214 214 213 213 213 213 215 215 214 213 213 212 211 212 213 212 211 210 210 209 208 208 203 197 192 177 171 205 218 214 220 214 211 219 223 232 244 242 231 248 272 295 312 335 345 343 346 353 0 359 360
307 305 303 300 296 292 288 283 280 280 277 272 265 258 254 252 248 242 237 234 231 228 227 225 224 223 223 222 220 218 217 217 216 215 215 215 215 215 215 214 213 214 213 215 215 214 213 212 212 211 211 213 212 211 210 210 209 209 209 205 198 194 185 174 190 210 210 223 234 230 231 231 230 235 240 236 256 281 284 295 316 326 331 344 350 355 355 357
309 307 305 301 298 293 289 284 278 275 274 272 268 262 255 251 248 244 238 234 232 229 227 226 225 223 222 222 221 219 217 217 216 215 215 215 215 216 216 214 213 214 214 215 216 215 214 213 212 212 212 212 212 211 211 210 209 210 210 208 200 196 193 182 185 195 191 194 206 218 225 233 234 233 240 245 264 282 281 284 301 313 324 343 346 349 352 354
313 310 307 304 301 296 290 284 278 273 269 268 267 264 259 252 248 245 241 235 232 231 228 225 225 224 222 222 222 220 218 218 217 216 215 215 215 216 217 215 213 214 214 215 216 216 214 213 212 212 212 211 212 211 210 210 209 210 210 208 201 197 196 186 183 185 185 183 184 205 216 227 233 230 235 242 256 268 267 270 290 310 320 338 341 345 350 352
316 313 310 307 304 299 292 285 278 272 267 264 263 262 260 255 249 244 242 237 233 231 229 226 225 224 223 222 222 221 219 218 217 216 215 214 215 216 217 216 214 214 215 215 216 216 215 213 212 212 212 212 211 211 210 210 210 209 209 208 202 198 196 186 182 183 186 184 179 195 205 215 227 226 229 238 249 250 248 254 271 302 315 333 337 341 348 352
316 314 312 309 306 300 294 286 279 272 266 262 259 258 257 255 251 245 241 239 234 231 229 227 224 224 223 222 221 221 220 218 217 216 215 215 214 215 216 217 215 215 215 215 215 216 215 214 213 213 213 213 212 212 210 210 211 210 208 208 206 202 197 189 186 188 192 191 186 189 192 200 211 215 223 235 246 242 240 245 254 284 308 330 336 340 346 353
315 314 312 309 306 301 295 287 280 272 265 260 257 254 252 252 251 247 241 238 236 232 229 228 225 223 223 222 221 221 221 219 218 216 215 215 214 215 216 217 216 215 216 216 215 215 215 215 214 213 213 214 213 212 211 210 212 211 208 207 207 205 201 194 191 194 196 195 192 192 193 195 200 208 219 230 238 236 237 243 252 276 300 326 337 343 350 3
315 314 312 309 305 301 295 288 280 272 264 259 255 252 249 248 248 247 243 238 236 233 229 228 226 223 222 222 221 221 221 220 218 217 216 215 215 214 215 216 216 216 216 216 215 214 216 215 214 214 214 214 214 213 212 212 212 211 209 207 207 206 203 197 195 197 198 195 195 198 199 198 199 207 215 222 228 228 233 241 245 266 287 312 333 348 5 20
316 314 312 309 305 301 295 288 280 273 264 257 253 250 247 245 244 244 243 239 235 233 230 227 226 224 221 221 222 221 221 220 219 218 216 216 215 215 215 215 216 216 216 216 215 214 215 215 215 214 214 214 213 213 213 213 213 212 210 208 207 206 203 199 198 199 199 198 199 199 200 201 200 202 209 215 220 224 231 236 233 246 271 286 318 348 14 29
317 315 313 309 305 300 294 288 280 272 264 257 251 248 245 243 241 240 241 239 235 232 230 227 225 224 221 220 221 221 220 220 219 219 217 216 216 215 215 215 216 216 216 216 216 215 215 215 215 215 215 214 214 214 214 214 213 212 212 210 208 207 203 200 200 200 200 202 204 203 203 203 201 201 206 211 217 225 230 229 228 238 258 264 289 335 5 25
318 316 313 309 305 299 294 288 280 272 264 257 250 246 243 241 238 237 238 238 235 231 229 227 224 223 222 221 220 220 220 220 220 219 218 217 216 216 215 215 216 216 216 216 216 215 215 215 216 216 215 214 214 214 214 215 214 213 212 211 210 209 205 202 203 203 203 205 208 211 210 206 203 204 207 211 216 221 225 224 227 237 251 251 259 314 352 20
319 316 313 309 304 299 294 288 281 272 264 256 249 244 241 239 237 235 235 236 235 232 229 227 224 222 221 221 220 220 220 219 220 220 218 218 217 216 216 215 215 216 216 216 216 215 215 215 216 216 215 214 214 214 215 215 215 213 212 211 211 211 208 207 207 207 206 206 210 214 215 211 208 208 208 212 214 214 217 219 222 227 238 239 240 282 341 26
319 316 312 308 304 299 294 288 281 272 264 255 248 242 238 236 235 234 233 234 234 232 229 226 225 222 221 221 221 220 219 219 219 219 219 218 218 217 216 216 216 216 216 216 216 216 215 215 216 216 216 215 214 214 214 215 215 214 212 210 211 211 211 212 213 213 210 209 212 215 217 216 212 212 211 212 214 213 215 219 221 223 228 231 230 244 308 43
319 315 312 308 304 300 294 287 279 271 262 254 246 241 236 234 233 232 231 231 232 232 229 226 224 222 220 220 221 220 219 218 218 219 219 218 217 217 217 216 216 216 216 216 216 216 216 216 216 217 217 216 215 215 214 214 215 215 213 211 211 212 211 213 215 217 215 212 213 214 217 219 217 216 215 215 217 217 219 225 228 229 229 228 226 228 237 74
319 316 313 309 304 299 293 285 277 268 259 251 244 239 235 232 230 230 229 229 230 230 228 225 223 222 220 219 220 220 219 218 217 218 219 218 217 217 217 216 216 216 216 216 216 216 216 216 216 217 217 217 216 215 214 214 214 215 215 212 211 212 212 212 214 217 217 214 213 211 214 222 222 219 217 217 221 220 220 226 231 232 228 225 223 224 228 208
320 317 313 309 304 298 291 283 274 265 256 248 242 237 232 230 228 227 227 227 228 228 227 225 223 221 220 219 219 219 219 218 217 217 218 219 218 217 217 217 216 215 215 215 216 216 216 216 216 217 218 218 217 215 214 214 214 214 215 214 213 213 213 213 214 216 216 214 212 211 214 223 225 220 216 217 222 224 221 223 226 228 225 222 222 224 229 226
320 317 313 309 304 298 290 282 272 263 254 246 239 234 230 228 226 225 225 225 226 226 226 224 222 220 219 218 218 218 219 218 217 216 217 218 218 217 217 217 216 216 216 215 215 215 216 216 217 218 218 218 218 216 215 215 215 214 215 215 214 213 213 213 214 216 217 215 212 210 211 218 223 220 217 217 223 227 225 222 221 223 223 222 225 230 234 231
321 317 313 309 304 298 290 280 271 261 251 243 236 231 227 225 223 223 223 223 224 224 224 223 221 219 219 218 217 217 218 218 217 216 216 217 217 217 217 217 217 217 216 215 215 214 215 216 217 217 218 218 218 216 215 215 215 215 215 216 214 213 213 213 213 216 217 217 214 210 208 211 218 219 217 217 219 221 222 220 217 219 221 222 226 231 230 225
321 318 314 310 304 298 290 280 269 259 249 240 234 228 224 222 220 220 220 220 221 221 221 221 220 218 218 217 217 216 217 218 218 217 216 216 216 216 216 217 217 217 216 215 214 214 215 217 217 218 218 218 218 216 215 215 216 216 215 216 216 214 213 213 213 214 217 217 215 213 211 211 215 218 218 216 217 219 220 219 218 218 219 220 224 222 220 219
322 319 315 310 305 299 291 281 269 259 248 239 232 226 222 219 217 217 217 217 218 218 218 218 218 217 217 216 216 216 216 216 217 217 216 216 216 216 216 216 217 217 216 215 214 214 215 217 217 218 219 219 219 217 216 216 216 216 216 217 217 215 214 214 213 214 216 216 215 214 214 214 214 217 218 215 214 216 215 215 218 219 217 218 219 218 221 221
323 320 316 311 305 298 291 282 270 259 249 240 233 227 222 218 216 215 215 215 215 215 215 216 216 216 216 216 215 215 215 215 216 217 217 217 216 216 215 216 216 216 216 215 215 215 216 216 217 218 219 220 220 218 217 217 217 217 217 217 217 216 216 215 215 215 215 216 215 215 216 216 215 215 216 213 211 212 212 214 217 216 215 216 218 223 229 228
325 321 317 311 304 296 287 280 269 258 249 242 234 228 224 220 216 214 214 214 214 213 213 214 215 215 215 215 215 215 215 214 215 216 217 217 217 216 216 216 216 216 216 216 216 216 216 216 216 217 219 220 221 219 218 217 218 218 218 218 217 217 216 216 216 216 215 216 218 217 217 218 218 215 215 214 211 211 213 213 214 214 214 215 220 223 226 229
326 322 318 312 304 293 284 277 268 257 249 243 237 229 225 222 218 215 214 213 213 213 213 213 214 215 215 215 216 215 214 214 214 215 216 217 217 217 216 216 216 216 216 216 217 217 217 216 216 217 218 220 221 220 218 217 218 218 218 218 217 217 217 217 217 217 216 218 220 220 219 219 219 217 217 217 214 214 214 213 212 214 214 215 217 218 219 224
328 324 320 314 305 292 281 273 264 258 252 246 240 232 226 223 221 218 215 214 214 213 213 213 214 214 214 214 215 215 214 214 214 214 216 216 217 217 217 216 216 216 216 216 217 218 217 217 216 217 218 219 221 221 219 218 219 219 218 218 218 218 218 218 218 217 217 219 221 222 221 220 220 219 219 218 216 216 216 214 213 213 213 213 214 217 219 222
330 325 322 316 305 289 276 266 262 261 255 248 242 234 227 224 222 220 217 215 215 214 214 214 214 213 214 214 215 215 215 214 214 214 215 216 217 217 217 216 216 216 215 216 217 218 218 217 216 216 217 219 221 222 221 219 219 218 218 218 218 219 219 219 218 217 217 219 222 223 223 222 221 221 220 220 219 219 218 216 215 213 213 213 215 220 224 227
332 328 323 318 306 288 277 270 266 262 255 246 240 233 228 224 222 221 219 217 216 216 215 215 214 214 214 214 215 215 215 214 214 214 215 216 216 217 217 216 216 216 215 216 217 218 218 217 216 216 216 218 220 222 222 222 221 219 218 218 218 219 220 220 219 219 219 220 221 223 224 223 223 222 221 221 222 223 223 221 219 218 218 217 219 224 230 233
335 331 327 321 307 287 277 271 265 258 248 242 237 233 229 225 223 222 221 220 218 217 217 216 215 215 215 215 215 215 216 215 214 214 214 216 216 216 216 216 216 216 215 216 217 217 218 218 217 217 216 217 219 221 222 223 222 220 219 219 219 220 220 220 219 220 220 220 220 222 223 223 223 223 223 223 224 226 227 227 226 225 224 224 225 229 234 236
338 336 331 325 310 288 279 272 264 254 242 237 235 233 229 226 225 224 223 223 220 218 217 216 216 216 215 216 216 215 216 216 215 214 214 215 216 216 216 215 215 215 215 216 217 217 217 218 218 218 218 218 219 221 222 223 223 222 221 220 220 221 221 221 220 220 222 221 221 221 222 223 223 223 223 223 224 226 229 230 230 230 229 230 232 236 239 240
340 337 333 325 311 294 284 275 264 253 244 238 234 233 230 228 228 227 226 226 223 221 219 219 217 216 216 216 216 216 216 216 216 215 215 215 216 216 217 216 215 215 215 216 217 217 218 218 219 219 219 219 220 221 222 223 222 222 221 220 220 221 222 222 221 221 222 222 221 221 222 224 224 223 223 223 223 225 228 230 232 233 232 233 235 238 241 242
341 337 332 323 311 297 285 273 260 249 242 237 235 234 233 233 233 232 231 230 227 224 222 221 220 219 218 217 216 216 216 216 216 216 216 216 216 216 217 217 216 216 216 217 217 217 218 219 219 220 220 221 221 222 223 223 223 222 221 220 220 220 221 223 222 222 223 222 222 221 222 224 224 224 224 224 223 224 226 229 232 233 233 234 236 239 241 243
343 338 333 325 315 302 288 274 257 243 234 233 236 237 238 238 238 237 237 235 232 228 224 222 221 220 219 218 218 218 217 217 217 217 216 216 216 217 217 217 217 217 217 217 217 218 218 219 219 220 220 221 222 222 223 224 224 223 222 221 221 220 221 222 222 223 224 223 222 222 222 224 225 224 225 225 224 224 226 228 231 233 234 235 237 240 242 244
345 341 337 331 323 311 295 277 260 253 248 248 249 248 248 246 243 241 240 239 237 233 229 226 223 222 220 219 218 218 219 218 218 218 217 217 217 217 218 218 218 217 217 218 218 218 219 219 219 219 220 221 222 223 224 225 225 224 223 222 222 221 221 222 222 223 224 223 222 222 223 224 225 225 225 225 225 225 226 228 229 233 236 238 240 243 245 246
347 344 341 336 329 313 296 286 278 277 276 273 268 263 259 255 250 246 242 241 240 237 234 230 226 223 221 220 219 219 219 220 220 219 218 218 218 218 218 219 219 218 217 218 218 218 218 219 219 219 220 221 222 222 224 225 226 225 224 224 223 222 222 222 222 223 224 224 222 222 223 225 226 226 225 226 227 227 227 228 229 232 235 238 241 244 246 247
348 346 345 340 334 319 309 308 302 295 289 282 277 274 270 265 260 254 248 245 243 241 238 235 230 226 223 222 220 219 219 220 220 220 219 219 219 219 219 219 219 219 218 218 218 218 218 218 219 219 220 221 222 222 224 225 226 226 226 225 224 224 223 223 223 222 223 224 223 222 223 224 226 227 226 226 227 229 229 229 230 232 234 236 238 239 241 243
348 349 350 345 336 324 318 315 306 294 288 286 289 291 290 283 275 267 258 252 247 244 242 240 235 230 226 224 222 221 220 220 220 220 220 219 218 219 220 220 220 219 219 219 218 218 218 218 218 219 220 221 222 222 223 225 226 226 226 225 224 225 224 224 224 223 223 224 223 222 222 224 226 227 227 226 226 228 230 230 231 232 234 235 237 237 238 240
349 353 353 344 332 323 319 314 303 295 297 304 306 306 302 296 288 280 271 260 251 245 243 242 239 234 230 228 225 223 221 221 221 221 221 220 219 218 219 220 220 220 220 219 219 219 219 219 219 219 220 220 221 222 223 224 225 226 226 225 224 224 225 225 225 224 224 224 224 223 223 224 225 227 227 227 226 227 228 229 231 232 234 236 238 239 240 241
350 352 348 337 327 323 322 317 309 309 313 315 317 317 313 307 300 291 280 267 254 245 239 237 237 235 232 229 227 224 223 222 221 221 221 221 221 220 219 219 220 221 221 220 220 220 220 219 219 220 220 220 221 222 223 224 225 226 226 226 225 224 224 225 226 226 225 225 225 224 223 224 225 227 228 229 229 229 228 229 230 232 233 235 236 238 241 243
348 349 344 336 329 327 327 322 318 318 317 318 325 327 323 318 311 302 289 272 257 246 237 233 231 231 231 229 227 225 224 222 221 221 221 221 222 222 221 220 220 221 221 222 221 221 221 220 220 220 221 221 221 222 223 224 224 225 226 227 227 226 225 225 225 226 226 227 226 225 224 224 225 226 227 229 231 231 231 230 230 231 232 233 235 237 239 242
346 344 340 337 335 331 329 325 322 321 321 326 332 334 332 328 323 314 301 282 264 251 240 233 228 226 227 227 226 224 223 223 222 221 220 220 221 222 222 221 221 221 221 222 222 222 222 222 221 221 221 221 222 222 222 223 224 225 226 227 227 227 226 225 225 225 226 227 227 227 225 224 224 225 225 227 230 231 232 231 231 230 231 231 233 234 235 238
344 341 338 336 335 331 328 326 325 326 329 333 338 340 339 338 334 326 314 297 276 259 245 235 229 226 224 224 224 223 222 222 222 220 219 219 220 221 222 222 222 222 221 221 222 222 223 222 222 222 222 222 222 222 222 223 224 225 226 227 227 228 227 227 226 226 226 226 227 227 227 226 225 225 225 226 228 230 231 232 232 232 231 231 232 233 233 233
342 339 335 332 330 326 325 326 328 329 332 336 339 342 343 345 344 338 326 312 292 269 251 239 231 227 224 223 222 221 221 222 222 221 219 217 217 218 220 221 222 223 222 222 222 222 223 223 223 222 223 223 223 223 224 224 224 225 226 227 228 228 228 227 227 227 226 226 226 227 227 227 227 226 226 226 227 229 231 231 232 232 231 231 231 232 231 228
340 337 333 328 325 323 323 326 328 331 334 337 338 342 346 351 352 348 339 327 311 284 259 244 234 229 226 224 222 221 220 220 221 221 220 218 216 216 217 218 220 222 222 222 222 222 222 223 223 223 223 224 224 224 224 224 224 225 226 227 228 228 228 228 228 227 227 227 226 226 227 227 227 228 227 227 227 229 231 231 232 231 231 231 230 230 228 222
339 335 331 325 323 321 321 325 329 332 336 337 338 341 347 354 358 357 351 342 330 307 268 246 235 230 228 225 223 223 222 221 220 220 220 219 217 216 215 216 218 220 221 222 222 222 222 223 223 223 223 224 224 224 224 224 224 225 225 226 227 228 228 229 229 229 228 228 227 226 226 226 227 228 228 228 228 229 230 231 232 231 230 231 230 229 226 219
337 333 329 325 321 320 322 326 330 333 336 338 339 342 347 354 360 2 360 354 347 334 296 252 234 230 228 226 224 224 223 222 221 220 220 219 218 217 216 215 216 218 220 221 222 222 222 222 223 224 224 224 224 225 225 224 224 224 225 226 227 227 228 228 229 229 229 229 228 227 227 226 226 227 228 229 229 229 230 231 231 231 230 230 229 228 226 220
336 331 328 325 322 321 322 325 330 334 336 338 340 343 348 353 358 3 5 3 359 352 334 286 241 228 224 223 223 223 223 222 222 221 221 220 219 218 217 216 216 216 218 219 220 221 222 222 223 224 224 224 224 225 225 225 224 224 225 226 227 228 228 227 228 229 230 230 230 229 228 227 227 227 228 229 229 229 230 230 231 231 230 230 229 228 226 221
336 330 327 326 324 321 320 323 328 332 335 338 340 343 347 352 356 1 6 7 5 2 355 335 276 239 226 222 221 222 222 221 220 220 221 220 220 219 218 217 217 217 217 218 220 220 221 222 222 223 224 224 224 225 226 225 225 225 225 225 226 228 228 227 227 228 229 229 230 230 230 229 228 227 228 229 229 229 229 230 230 231 230 230 230 229 228 224
337 329 326 325 324 321 319 320 324 330 335 338 340 343 346 351 355 359 4 7 9 9 5 357 336 275 238 227 223 222 222 221 220 219 218 219 219 219 219 218 218 218 217 218 219 220 221 222 222 223 224 225 224 224 225 226 225 225 225 225 226 227 229 228 227 227 228 228 229 230 230 230 229 228 228 229 230 230 230 230 230 230 230 230 230 230 229 227
Height
10911 10909 10908 10907 10905 10904 10903 10903 10902 10902 10902 10902 10903 10903 10904 10905 10907 10909 10910 10911 10912 10913 10915 10917 10919 10922 10923 10925 10927 10930 10934 10937 10940 10943 10946 10950 10953 10954 10956 10960 10963 10966 10969 10972 10974 10977 10980 10983 10987 10990 10992 10994 10997 10999 11001 11004 11006 11008 11010 11013 11015 11017 11019 11020 11021 11022 11023 11023 11024 11024 11023 11023 11023 11022 11022 11021 11020 11020 11019 11019 11019 11019 11018 11016 11015 11014 11012 11011
10909 10907 10906 10904 10903 10901 10900 10899 10899 10899 10898 10899 10899 10899 10900 10901 10902 10904 10906 10907 10908 10909 10911 10912 10915 10917 10919 10921 10923 10926 10930 10933 10936 10939 10943 10947 10950 10951 10953 10957 10960 10963 10966 10968 10971 10974 10977 10980 10984 10988 10990 10993 10995 10997 11000 11002 11005 11007 11009 11012 11014 11016 11019 11019 11020 11021 11022 11023 11023 11023 11023 11023 11023 11023 11022 11021 11020 11019 11019 11019 11020 11020 11019 11018 11017 11015 11014 11013
10907 10905 10903 10902 10900 10899 10897 10896 10895 10895 10895 10895 10895 10895 10896 10897 10898 10899 10901 10902 10904 10905 10906 10908 10910 10913 10915 10917 10919 10922 10926 10929 10932 10935 10939 10943 10946 10948 10950 10953 10957 10960 10963 10965 10968 10971 10974 10977 10981 10985 10988 10991 10994 10996 10998 11001 11003 11005 11008 11011 11013 11016 11018 11019 11019 11021 11021 11022 11023 11023 11023 11023 11023 11023 11022 11021 11020 11020 11020 11021 11021 11021 11020 11019 11018 11017 11015 11014
10904 10902 10901 10899 10897 10896 10894 10893 10892 10891 10891 10891 10891 10891 10891 10892 10893 10894 10896 10898 10899 10901 10902 10903 10905 10908 10911 10913 10915 10918 10921 10925 10928 10931 10935 10939 10942 10944 10946 10950 10953 10957 10960 10962 10965 10968 10971 10974 10978 10983 10986 10988 10991 10994 10996 10999 11002 11004 11007 11010 11012 11015 11017 11017 11019 11020 11021 11022 11022 11022 11022 11023 11023 11023 11023 11021 11020 11021 11021 11021 11021 11021 11021 11020 11019 11018 11016 11015
10901 10899 10898 10896 10894 10893 10891 10889 10888 10887 10886 10886 10886 10886 10886 10887 10888 10889 10891 10892 10894 10896 10897 10898 10900 10903 10906 10908 10911 10914 10917 10920 10924 10927 10931 10935 10938 10940 10943 10946 10950 10953 10956 10959 10961 10964 10968 10971 10975 10980 10983 10985 10989 10992 10994 10997 11000 11003 11005 11008 11011 11014 11016 11016 11018 11020 11022 11023 11023 11023 11023 11023 11023 11023 11023 11021 11019 11020 11021 11022 11022 11022 11022 11021 11020 11019 11018 11017
10898 10896 10894 10892 10891 10889 10887 10886 10884 10883 10882 10881 10881 10882 10882 10882 10882 10884 10885 10887 10889 10891 10892 10894 10895 10898 10900 10903 10906 10909 10913 10916 10919 10922 10927 10931 10934 10936 10939 10943 10946 10950 10953 10955 10958 10961 10964 10968 10972 10977 10979 10982 10986 10990 10992 10996 10999 11002 11004 11007 11010 11012 11015 11016 11017 11019 11022 11024 11024 11024 11024 11023 11022 11022 11022 11020 11019 11019 11021 11022 11022 11022 11022 11022 11021 11020 11019 11018
10894 10892 10890 10888 10886 10885 10883 10882 10880 10879 10877 10876 10876 10876 10876 10877 10877 10878 10879 10881 10883 10884 10887 10889 10890 10892 10895 10898 10901 10905 10908 10911 10914 10918 10922 10926 10929 10932 10935 10939 10943 10946 10949 10951 10954 10958 10961 10964 10969 10973 10976 10980 10984 10988 10991 10994 10997 11001 11003 11005 11008 11010 11013 11016 11017 11019 11022 11024 11026 11026 11024 11022 11020 11021 11021 11020 11019 11018 11020 11021 11022 11023 11023 11023 11022 11021 11020 11019
10889 10887 10885 10883 10881 10880 10878 10876 10875 10874 10872 10871 10871 10870 10870 10871 10871 10872 10873 10875 10877 10878 10880 10883 10885 10887 10890 10893 10896 10900 10903 10906 10909 10913 10917 10921 10925 10927 10930 10935 10939 10942 10945 10947 10951 10954 10957 10961 10966 10969 10973 10977 10982 10985 10989 10992 10996 10999 11001 11003 11006 11009 11011 11014 11016 11018 11021 11022 11023 11023 11021 11019 11019 11020 11020 11020 11019 11018 11019 11021 11022 11024 11024 11024 11023 11022 11021 11020
10884 10882 10880 10877 10876 10874 10873 10871 10869 10868 10867 10866 10865 10865 10864 10864 10865 10866 10867 10869 10870 10871 10873 10876 10879 10882 10884 10887 10891 10894 10898 10901 10905 10908 10912 10916 10920 10923 10926 10930 10935 10937 10940 10944 10947 10950 10953 10958 10962 10966 10969 10974 10978 10982 10985 10989 10992 10995 10997 11001 11004 11007 11009 11012 11014 11016 11017 11018 11019 11019 11018 11017 11018 11019 11020 11019 11020 11020 11020 11020 11022 11024 11025 11025 11024 11023 11023 11021
10877 10875 10873 10871 10869 10867 10866 10865 10863 10861 10860 10859 10859 10858 10858 10858 10858 10859 10861 10862 10863 10865 10866 10870 10873 10876 10879 10882 10885 10889 10892 10895 10899 10903 10907 10910 10914 10917 10921 10925 10930 10933 10936 10939 10942 10946 10951 10956 10959 10961 10965 10970 10973 10977 10981 10985 10988 10991 10994 10998 11002 11004 11007 11010 11012 11013 11015 11016 11017 11017 11016 11016 11016 11018 11019 11019 11020 11021 11020 11020 11022 11024 11025 11025 11025 11025 11024 11023
10871 10869 10866 10864 10862 10860 10858 10857 10856 10854 10853 10852 10852 10851 10851 10851 10851 10852 10854 10855 10856 10858 10860 10862 10866 10869 10873 10876 10879 10883 10886 10889 10893 10897 10901 10905 10908 10912 10915 10920 10925 10928 10931 10934 10938 10943 10949 10952 10954 10958 10962 10967 10970 10974 10979 10983 10985 10988 10992 10996 10998 11001 11004 11007 11008 11010 11012 11013 11013 11013 11014 11015 11016 11017 11018 11019 11020 11020 11021 11021 11022 11024 11026 11026 11026 11026 11025 11024
10866 10862 10859 10856 10854 10851 10850 10848 10847 10846 10845 10844 10844 10844 10843 10843 10844 10845 10846 10847 10849 10851 10853 10855 10858 10862 10866 10869 10873 10876 10879 10883 10887 10891 10895 10899 10902 10906 10910 10915 10920 10923 10926 10930 10935 10941 10945 10947 10951 10956 10959 10962 10966 10971 10976 10980 10981 10984 10989 10992 10995 10997 11000 11003 11005 11007 11009 11010 11010 11010 11011 11013 11015 11016 11017 11018 11019 11020 11021 11022 11023 11024 11026 11027 11027 11027 11026 11025
10859 10856 10852 10848 10845 10842 10840 10839 10838 10837 10836 10836 10835 10835 10835 10835 10836 10837 10838 10839 10841 10843 10845 10847 10850 10854 10859 10863 10865 10868 10871 10876 10880 10884 10889 10893 10897 10901 10905 10909 10914 10918 10922 10925 10931 10937 10940 10943 10948 10951 10953 10957 10962 10968 10973 10975 10978 10982 10985 10988 10990 10993 10996 10999 11002 11004 11006 11007 11008 11008 11009 11013 11015 11015 11016 11018 11019 11020 11021 11022 11023 11024 11026 11027 11027 11027 11026 11026
10851 10847 10843 10839 10836 10833 10830 10829 10827 10826 10826 10826 10826 10826 10827 10826 10827 10828 10830 10831 10833 10835 10837 10840 10843 10847 10851 10855 10857 10860 10864 10870 10875 10879 10883 10888 10892 10895 10899 10903 10907 10912 10916 10921 10927 10932 10935 10939 10943 10946 10949 10954 10959 10964 10969 10971 10975 10979 10981 10984 10986 10989 10993 10996 10998 11001 11004 11006 11007 11008 11010 11013 11014 11014 11016 11017 11018 11019 11021 11022 11023 11024 11026 11028 11028 11027 11026 11026
10841 10837 10833 10829 10825 10822 10820 10818 10817 10816 10816 10816 10816 10817 10817 10817 10818 10819 10820 10822 10823 10825 10828 10831 10835 10839 10843 10846 10849 10853 10858 10864 10869 10873 10878 10882 10886 10890 10893 10897 10902 10907 10912 10917 10922 10927 10932 10936 10939 10941 10945 10951 10957 10961 10964 10967 10971 10974 10977 10981 10984 10987 10991 10993 10995 10999 11002 11004 11006 11008 11009 11011 11013 11014 11015 11017 11018 11019 11021 11022 11023 11024 11026 11028 11028 11028 11027 11026
10830 10826 10821 10817 10814 10811 10809 10807 10806 10805 10805 10805 10806 10806 10806 10807 10808 10809 10811 10812 10814 10816 10819 10823 10827 10831 10835 10837 10840 10845 10852 10858 10863 10868 10873 10877 10881 10885 10888 10893 10897 10902 10907 10912 10918 10924 10928 10931 10933 10936 10942 10948 10953 10957 10959 10962 10965 10970 10974 10979 10982 10986 10989 10991 10993 10996 10999 11002 11004 11006 11008 11010 11012 11013 11014 11016 11017 11019 11020 11022 11022 11024 11026 11028 11028 11028 11027 11026
10819 10814 10810 10805 10801 10798 10797 10795 10794 10793 10793 10793 10794 10795 10795 10797 10798 10800 10802 10803 10805 10808 10811 10815 10819 10822 10827 10830 10833 10839 10846 10852 10857 10861 10867 10872 10875 10879 10883 10886 10891 10896 10901 10907 10913 10918 10922 10925 10928 10932 10938 10943 10948 10952 10954 10956 10960 10965 10971 10976 10979 10983 10987 10990 10992 10995 10997 11000 11003 11005 11007 11009 11012 11013 11013 11014 11016 11018 11019 11021 11022 11023 11025 11027 11028 11028 11028 11027
10807 10802 10797 10792 10788 10785 10784 10782 10781 10781 10781 10781 10782 10783 10784 10786 10788 10790 10792 10794 10796 10799 10803 10807 10811 10815 10820 10824 10827 10832 10839 10845 10849 10853 10859 10865 10869 10872 10876 10881 10886 10892 10897 10903 10908 10911 10916 10920 10924 10928 10934 10939 10942 10944 10946 10949 10955 10962 10967 10973 10976 10980 10984 10986 10989 10992 10996 10998 11001 11004 11007 11009 11011 11012 11012 11013 11015 11016 11018 11020 11021 11023 11024 11026 11027 11028 11028 11028
10793 10788 10783 10778 10774 10771 10769 10768 10767 10767 10768 10768 10769 10771 10773 10774 10776 10779 10781 10784 10786 10790 10794 10797 10802 10807 10813 10817 10820 10825 10830 10836 10842 10846 10851 10857 10862 10866 10870 10876 10882 10887 10892 10897 10901 10905 10910 10915 10920 10924 10927 10930 10932 10935 10939 10946 10953 10959 10963 10969 10973 10975 10978 10981 10984 10988 10992 10997 11000 11003 11006 11007 11009 11010 11011 11012 11013 11015 11017 11019 11021 11022 11023 11025 11026 11028 11028 11028
10780 10774 10768 10763 10759 10756 10754 10753 10753 10753 10754 10755 10756 10758 10761 10762 10764 10767 10771 10774 10776 10780 10784 10789 10794 10800 10805 10810 10813 10816 10821 10828 10834 10838 10843 10849 10855 10859 10864 10870 10875 10881 10886 10890 10895 10900 10905 10911 10915 10917 10917 10920 10923 10930 10938 10945 10950 10954 10959 10965 10968 10970 10973 10976 10980 10983 10988 10994 10998 11001 11004 11006 11008 11009 11011 11012 11012 11014 11017 11019 11020 11021 11022 11023 11025 11026 11027 11027
10766 10759 10752 10747 10743 10740 10738 10737 10737 10738 10739 10741 10743 10745 10748 10750 10753 10757 10761 10763 10765 10770 10776 10781 10787 10792 10797 10801 10805 10809 10813 10819 10826 10831 10836 10841 10848 10854 10859 10864 10869 10873 10877 10882 10889 10895 10901 10906 10907 10907 10909 10914 10920 10929 10937 10941 10945 10950 10954 10959 10963 10967 10971 10975 10978 10980 10984 10990 10995 10998 11001 11004 11006 11008 11009 11011 11012 11014 11017 11018 11019 11020 11021 11022 11023 11025 11026 11026
10752 10744 10736 10730 10727 10724 10723 10722 10722 10723 10724 10727 10729 10732 10735 10738 10742 10747 10750 10753 10756 10761 10768 10773 10777 10783 10788 10792 10796 10801 10804 10809 10816 10823 10828 10833 10840 10846 10852 10858 10862 10865 10870 10877 10884 10891 10896 10898 10897 10899 10905 10910 10917 10926 10933 10936 10941 10945 10949 10953 10958 10963 10967 10970 10974 10977 10981 10985 10990 10994 10998 11002 11005 11006 11008 11009 11011 11013 11015 11016 11017 11019 11020 11021 11022 11023 11025 11025
10737 10729 10722 10716 10712 10710 10709 10709 10709 10710 10711 10713 10716 10719 10723 10727 10731 10736 10739 10742 10747 10753 10759 10764 10769 10775 10779 10783 10788 10792 10796 10801 10808 10814 10819 10824 10830 10837 10845 10850 10854 10858 10865 10873 10879 10885 10887 10886 10888 10894 10901 10906 10912 10920 10926 10930 10935 10939 10944 10947 10951 10957 10961 10966 10971 10974 10978 10982 10986 10990 10994 10998 11002 11004 11004 11005 11008 11011 11013 11014 11016 11018 11019 11020 11021 11022 11023 11025
10723 10715 10709 10703 10700 10698 10697 10697 10698 10698 10699 10702 10704 10707 10711 10715 10720 10725 10728 10732 10737 10743 10749 10755 10761 10766 10769 10773 10778 10783 10788 10794 10799 10806 10812 10816 10822 10829 10836 10841 10847 10853 10860 10866 10871 10876 10875 10876 10884 10891 10895 10899 10905 10913 10920 10925 10929 10933 10938 10941 10945 10951 10957 10962 10966 10970 10974 10978 10982 10987 10991 10994 10998 11000 11001 11002 11005 11008 11011 11013 11015 11016 11018 11019 11021 11021 11022 11023
10710 10703 10698 10694 10690 10688 10687 10688 10689 10689 10690 10692 10694 10697 10700 10704 10709 10713 10717 10721 10727 10733 10739 10745 10750 10754 10758 10763 10769 10774 10779 10784 10790 10797 10803 10808 10814 10821 10827 10833 10840 10846 10852 10858 10863 10866 10866 10873 10883 10887 10890 10894 10900 10908 10915 10919 10922 10928 10932 10935 10938 10946 10952 10957 10961 10964 10967 10971 10977 10983 10987 10990 10994 10996 10997 10999 11002 11006 11009 11011 11013 11015 11017 11018 11020 11020 11021 11022
10700 10694 10689 10686 10683 10681 10680 10680 10681 10682 10682 10684 10686 10688 10691 10694 10698 10702 10707 10711 10717 10723 10730 10736 10740 10744 10748 10754 10760 10764 10769 10776 10782 10788 10795 10801 10806 10812 10819 10825 10831 10837 10843 10849 10855 10857 10861 10870 10877 10880 10884 10888 10894 10902 10909 10913 10917 10923 10926 10928 10933 10941 10947 10952 10956 10957 10961 10967 10974 10980 10984 10987 10990 10993 10994 10996 10999 11002 11006 11009 11011 11013 11015 11017 11018 11019 11020 11021
10691 10686 10683 10680 10677 10675 10674 10674 10676 10676 10676 10677 10679 10681 10684 10686 10690 10694 10698 10703 10708 10714 10721 10725 10729 10734 10741 10747 10752 10755 10762 10769 10775 10781 10787 10793 10799 10806 10812 10816 10822 10829 10835 10843 10849 10851 10856 10864 10870 10874 10879 10883 10888 10896 10902 10907 10912 10915 10917 10922 10929 10935 10940 10944 10948 10952 10960 10967 10971 10975 10980 10983 10987 10990 10992 10993 10996 10999 11003 11006 11008 11011 11014 11015 11017 11018 11019 11019
10684 10680 10677 10674 10672 10670 10669 10670 10671 10671 10671 10672 10674 10676 10678 10680 10683 10687 10691 10696 10700 10706 10711 10716 10721 10727 10734 10739 10742 10748 10755 10761 10767 10773 10778 10783 10791 10798 10803 10808 10815 10822 10830 10839 10842 10844 10850 10857 10862 10867 10872 10877 10881 10885 10892 10900 10903 10904 10909 10918 10923 10927 10932 10936 10941 10949 10958 10963 10966 10971 10975 10979 10983 10986 10988 10991 10994 10996 11000 11003 11006 11009 11011 11013 11015 11016 11017 11017
10678 10674 10671 10669 10667 10666 10666 10666 10667 10667 10667 10668 10669 10671 10673 10675 10678 10681 10685 10689 10693 10698 10703 10709 10714 10720 10726 10730 10735 10742 10748 10753 10759 10765 10770 10776 10783 10788 10793 10799 10807 10815 10824 10831 10832 10836 10843 10849 10855 10862 10868 10871 10872 10874 10885 10893 10892 10895 10906 10913 10916 10921 10926 10930 10936 10945 10953 10957 10961 10966 10970 10975 10978 10981 10985 10989 10991 10994 10997 11000 11003 11006 11008 11011 11012 11013 11014 11015
10673 10670 10667 10665 10664 10663 10663 10663 10663 10663 10664 10665 10666 10667 10669 10671 10674 10677 10681 10684 10688 10693 10697 10702 10707 10713 10718 10723 10729 10735 10740 10745 10752 10758 10762 10767 10772 10777 10784 10792 10800 10808 10817 10821 10823 10828 10834 10840 10849 10858 10863 10864 10863 10868 10878 10882 10881 10890 10901 10905 10910 10916 10919 10924 10932 10941 10948 10953 10957 10961 10966 10971 10974 10978 10982 10985 10989 10992 10995 10998 11000 11002 11005 11008 11009 11010 11011 11012
10670 10666 10664 10662 10661 10660 10660 10660 10660 10661 10661 10662 10663 10664 10666 10668 10671 10674 10677 10680 10684 10688 10692 10696 10701 10706 10711 10717 10722 10727 10731 10736 10743 10749 10754 10758 10762 10768 10776 10785 10793 10800 10807 10812 10813 10818 10825 10833 10843 10849 10851 10853 10856 10863 10869 10871 10876 10888 10895 10899 10906 10910 10913 10921 10931 10940 10946 10948 10951 10955 10960 10966 10970 10974 10978 10982 10986 10989 10993 10996 10997 10999 11002 11005 11006 11008 11009 11010
10666 10663 10661 10660 10659 10658 10658 10658 10658 10658 10659 10660 10661 10662 10664 10666 10669 10671 10674 10677 10680 10684 10687 10691 10695 10700 10705 10709 10714 10718 10723 10728 10733 10739 10744 10748 10753 10759 10766 10775 10782 10790 10797 10799 10801 10809 10819 10827 10834 10837 10841 10845 10850 10856 10860 10864 10874 10885 10891 10897 10902 10905 10911 10920 10929 10935 10937 10938 10943 10949 10954 10959 10964 10969 10975 10980 10983 10986 10990 10992 10994 10996 10999 11001 11003 11005 11006 11007
10663 10661 10659 10657 10657 10656 10656 10656 10656 10657 10657 10658 10659 10660 10662 10664 10667 10669 10671 10673 10676 10679 10681 10684 10688 10692 10697 10701 10706 10711 10715 10720 10725 10732 10736 10739 10744 10750 10756 10764 10771 10779 10785 10788 10795 10806 10813 10820 10826 10830 10836 10842 10846 10850 10853 10859 10870 10879 10885 10893 10898 10902 10909 10916 10923 10927 10927 10931 10939 10944 10949 10954 10958 10965 10970 10974 10978 10982 10985 10987 10990 10992 10994 10997 10999 11001 11002 11004
10661 10659 10657 10656 10655 10655 10655 10654 10655 10655 10656 10656 10657 10659 10660 10663 10664 10666 10668 10669 10671 10674 10677 10680 10682 10685 10689 10692 10697 10703 10707 10711 10717 10723 10726 10730 10735 10741 10745 10753 10763 10772 10777 10782 10793 10802 10808 10814 10820 10826 10833 10838 10842 10845 10846 10851 10861 10869 10875 10885 10892 10898 10904 10909 10914 10918 10919 10925 10933 10939 10946 10950 10953 10959 10963 10967 10973 10976 10978 10981 10983 10986 10989 10992 10994 10996 10999 11001
10660 10658 10656 10655 10654 10654 10653 10653 10654 10654 10655 10655 10656 10658 10659 10661 10662 10663 10664 10664 10666 10669 10672 10674 10677 10680 10683 10686 10691 10696 10700 10704 10707 10711 10716 10722 10728 10732 10739 10750 10760 10767 10773 10780 10790 10797 10803 10809 10815 10822 10829 10833 10836 10838 10839 10844 10852 10858 10867 10877 10885 10892 10897 10899 10905 10909 10911 10918 10926 10936 10943 10943 10945 10953 10957 10962 10968 10970 10972 10975 10977 10981 10985 10987 10990 10993 10995 10998
10660 10657 10655 10654 10653 10653 10652 10652 10653 10654 10654 10655 10655 10656 10658 10659 10660 10660 10660 10660 10660 10663 10665 10667 10669 10672 10676 10681 10687 10689 10691 10694 10697 10702 10710 10717 10722 10729 10739 10748 10755 10762 10770 10778 10785 10792 10797 10802 10809 10816 10821 10824 10828 10831 10833 10837 10843 10852 10862 10869 10876 10884 10888 10891 10897 10901 10905 10913 10923 10932 10936 10935 10939 10947 10952 10957 10962 10965 10968 10971 10974 10978 10981 10985 10988 10990 10994 10997
10659 10657 10655 10654 10653 10652 10652 10652 10653 10653 10654 10654 10654 10655 10656 10656 10657 10657 10656 10655 10655 10657 10659 10660 10663 10666 10670 10676 10680 10681 10684 10687 10691 10699 10707 10713 10719 10729 10737 10742 10747 10756 10764 10771 10779 10785 10790 10795 10801 10807 10810 10814 10819 10823 10826 10828 10835 10846 10854 10860 10868 10876 10881 10885 10890 10895 10900 10908 10918 10925 10929 10931 10934 10940 10946 10951 10956 10960 10964 10967 10971 10976 10979 10983 10986 10989 10993 10995
10659 10656 10655 10654 10653 10652 10652 10652 10652 10653 10653 10653 10653 10653 10653 10653 10653 10652 10651 10650 10651 10652 10652 10653 10656 10661 10666 10670 10672 10674 10679 10683 10687 10695 10702 10708 10717 10726 10731 10734 10740 10749 10755 10762 10769 10775 10780 10786 10794 10798 10801 10805 10811 10816 10819 10821 10828 10838 10845 10853 10861 10868 10874 10878 10882 10890 10896 10902 10911 10918 10923 10926 10928 10933 10940 10947 10951 10956 10959 10964 10969 10972 10975 10979 10983 10987 10990 10990
10659 10656 10655 10653 10653 10652 10652 10652 10652 10652 10652 10651 10651 10651 10650 10650 10648 10647 10646 10646 10646 10646 10646 10647 10650 10655 10660 10663 10665 10669 10673 10677 10683 10690 10696 10703 10713 10719 10723 10727 10733 10740 10745 10752 10758 10764 10770 10777 10785 10789 10792 10797 10804 10808 10812 10816 10822 10829 10837 10846 10854 10859 10865 10869 10875 10885 10890 10894 10904 10911 10916 10920 10922 10927 10936 10943 10947 10951 10954 10959 10964 10966 10969 10973 10977 10981 10983 10984
10659 10656 10655 10654 10653 10652 10652 10652 10651 10651 10650 10649 10648 10647 10646 10645 10643 10641 10640 10640 10640 10639 10639 10640 10644 10649 10653 10656 10658 10663 10667 10671 10677 10682 10688 10696 10703 10709 10713 10718 10724 10730 10735 10742 10748 10753 10760 10769 10775 10779 10783 10790 10795 10799 10804 10809 10813 10818 10826 10836 10843 10849 10855 10861 10869 10877 10883 10888 10897 10905 10911 10915 10916 10922 10930 10937 10942 10945 10949 10954 10958 10961 10965 10968 10971 10975 10977 10978
10660 10657 10655 10654 10653 10652 10652 10651 10650 10649 10648 10647 10646 10644 10642 10640 10637 10635 10634 10633 10632 10632 10633 10634 10637 10641 10646 10648 10651 10656 10660 10666 10671 10675 10680 10687 10692 10697 10702 10708 10715 10720 10726 10733 10738 10743 10751 10759 10765 10769 10774 10781 10786 10790 10795 10800 10803 10808 10815 10823 10831 10838 10847 10855 10862 10870 10878 10884 10892 10901 10907 10910 10912 10917 10923 10929 10935 10939 10943 10947 10951 10954 10959 10963 10967 10970 10972 10975
10659 10657 10655 10654 10653 10652 10651 10650 10649 10647 10645 10644 10642 10640 10638 10635 10632 10629 10627 10625 10624 10624 10625 10626 10629 10633 10636 10639 10643 10649 10654 10659 10664 10667 10674 10680 10684 10689 10695 10701 10707 10713 10718 10724 10729 10735 10743 10750 10755 10761 10766 10772 10777 10782 10786 10790 10795 10800 10805 10812 10820 10830 10839 10848 10856 10866 10874 10879 10886 10895 10901 10905 10910 10915 10920 10924 10929 10933 10937 10941 10945 10949 10954 10958 10962 10966 10969 10972
10658 10656 10654 10653 10652 10651 10650 10648 10646 10645 10643 10642 10640 10637 10633 10629 10626 10623 10620 10618 10616 10616 10617 10618 10621 10624 10627 10630 10635 10641 10646 10650 10654 10658 10665 10672 10676 10682 10688 10693 10699 10705 10711 10717 10722 10728 10734 10741 10748 10753 10758 10763 10768 10772 10776 10780 10786 10792 10797 10803 10812 10822 10832 10841 10850 10860 10867 10872 10879 10887 10895 10901 10906 10911 10916 10920 10923 10926 10930 10934 10938 10943 10948 10953 10958 10961 10963 10967
10656 10654 10653 10652 10651 10649 10648 10646 10644 10643 10641 10639 10636 10634 10629 10625 10621 10617 10614 10612 10610 10609 10610 10611 10614 10616 10618 10621 10627 10632 10636 10639 10643 10650 10657 10664 10668 10674 10679 10686 10691 10696 10702 10708 10713 10719 10725 10733 10739 10744 10749 10754 10757 10762 10767 10771 10777 10783 10789 10797 10806 10815 10825 10835 10843 10851 10858 10864 10871 10879 10888 10895 10899 10904 10911 10914 10916 10918 10921 10925 10931 10936 10943 10948 10952 10954 10956 10962
10656 10653 10651 10650 10649 10647 10645 10644 10642 10640 10638 10636 10634 10631 10627 10622 10617 10612 10609 10607 10605 10604 10604 10605 10607 10609 10611 10614 10619 10623 10627 10630 10634 10641 10649 10655 10661 10666 10673 10680 10685 10689 10694 10699 10704 10711 10717 10723 10729 10735 10739 10743 10748 10753 10758 10763 10769 10776 10785 10792 10799 10808 10818 10827 10835 10843 10849 10856 10863 10872 10880 10887 10892 10898 10903 10907 10909 10910 10913 10918 10924 10930 10938 10943 10945 10947 10951 10958
10655 10652 10651 10649 10647 10645 10644 10642 10640 10638 10636 10634 10632 10629 10625 10620 10615 10610 10606 10603 10602 10600 10599 10600 10601 10603 10605 10608 10612 10615 10619 10623 10627 10633 10640 10646 10652 10659 10666 10673 10677 10681 10686 10690 10695 10702 10707 10712 10719 10725 10729 10734 10740 10746 10752 10758 10765 10773 10782 10787 10793 10800 10809 10817 10825 10833 10840 10848 10856 10864 10871 10879 10885 10890 10896 10900 10903 10903 10906 10912 10917 10924 10932 10936 10939 10942 10948 10955
10654 10651 10649 10647 10646 10644 10642 10640 10638 10636 10634 10632 10630 10627 10624 10620 10614 10609 10604 10601 10599 10597 10596 10596 10597 10598 10600 10603 10606 10609 10612 10616 10620 10626 10632 10637 10644 10651 10658 10663 10666 10670 10676 10680 10686 10693 10698 10703 10709 10715 10720 10725 10731 10738 10744 10752 10760 10769 10776 10781 10786 10794 10801 10807 10815 10823 10831 10840 10848 10855 10863 10870 10876 10881 10887 10892 10895 10897 10900 10905 10911 10918 10924 10928 10932 10937 10943 10948
10652 10650 10648 10646 10644 10642 10640 10639 10637 10635 10632 10630 10627 10625 10622 10618 10614 10608 10604 10600 10598 10595 10593 10593 10594 10594 10596 10598 10601 10603 10606 10609 10614 10619 10624 10630 10636 10643 10649 10653 10656 10660 10665 10671 10677 10684 10689 10694 10699 10705 10711 10716 10722 10729 10737 10744 10753 10762 10768 10772 10777 10785 10792 10799 10808 10815 10821 10829 10838 10846 10853 10860 10866 10871 10877 10882 10887 10891 10895 10899 10904 10910 10915 10919 10923 10929 10935 10939
10651 10648 10646 10644 10642 10640 10639 10637 10635 10633 10631 10628 10626 10622 10619 10616 10612 10608 10604 10600 10597 10594 10592 10591 10591 10591 10593 10595 10596 10598 10601 10604 10608 10613 10617 10623 10629 10634 10640 10644 10648 10651 10656 10662 10669 10675 10680 10685 10690 10696 10702 10708 10714 10721 10727 10736 10745 10753 10759 10763 10768 10774 10781 10790 10799 10805 10811 10819 10827 10835 10843 10850 10856 10862 10867 10873 10880 10885 10888 10891 10895 10900 10906 10911 10915 10920 10926 10930
10649 10646 10644 10642 10640 10638 10637 10635 10633 10631 10629 10627 10624 10621 10618 10614 10612 10608 10604 10600 10597 10594 10591 10590 10589 10589 10590 10591 10592 10594 10596 10599 10603 10607 10611 10616 10621 10626 10631 10636 10640 10644 10649 10654 10661 10668 10672 10677 10683 10688 10693 10700 10706 10712 10719 10727 10737 10744 10750 10754 10759 10764 10771 10781 10789 10795 10802 10810 10816 10824 10833 10841 10848 10855 10860 10864 10869 10874 10878 10881 10885 10891 10897 10902 10907 10912 10917 10921
10648 10645 10642 10640 10638 10636 10635 10633 10632 10630 10628 10625 10622 10620 10617 10613 10610 10607 10604 10600 10597 10594 10591 10589 10588 10588 10588 10588 10589 10590 10592 10595 10598 10601 10606 10610 10615 10619 10624 10628 10633 10638 10644 10649 10655 10660 10664 10669 10676 10680 10683 10691 10699 10704 10710 10719 10728 10735 10740 10745 10751 10754 10760 10771 10780 10785 10792 10799 10805 10814 10823 10831 10838 10845 10850 10853 10857 10861 10867 10871 10875 10881 10888 10894 10899 10904 10909 10914
10646 10643 10641 10639 10637 10634 10633 10632 10630 10628 10626 10624 10621 10618 10615 10612 10609 10605 10603 10600 10597 10595 10592 10589 10588 10587 10587 10587 10587 10588 10589 10591 10593 10596 10600 10604 10608 10613 10617 10622 10627 10632 10638 10644 10649 10654 10658 10662 10667 10672 10676 10683 10690 10696 10702 10711 10719 10724 10729 10735 10741 10745 10750 10760 10768 10774 10781 10788 10795 10803 10811 10818 10826 10834 10839 10843 10847 10851 10855 10859 10864 10872 10880 10886 10891 10896 10901 10905